Hlavní strana
METAR-TAF:

METAR-TAF

Letiště :

Lake City, Florida, Spojené státy americké

zeměpisná šířka: 30-10-55N, zeměpisná délka: 082-34-37W, výška: 61 m

Aktuální stav počasí

Zpráva byla vytvořena před 29 minutami, v 02:15 UTC
Jihojihovýchodní vítr 3 kt
Teplota 14°C
Vlhkost vzduchu 88%
Tlak 1023 hPa
Viditelnost: 16.1 km
Jasno

METAR: KLCQ 190215Z AUTO 15003KT 10SM CLR 14/12 A3020 RMK AO2 LTG DSNT SW

Čas: 21:44 (02:44 UTC)


TAF: chybějící

Stav a předpovědi počasí z více než 4 000 letišť (zprávy METAR a TAF).

Červené a žluté tečky na mapě představují dostupné meteorologické stanice.

Když kurzor umístíte na tečku, zobrazí se název stanice.

Pak kliknutím zobrazíte stav a předpověď počasí.

Chcete-li změnit mapu, kliknutím na zelené tlačítko se znaménkem +mapu přiblížíte, kliknutím na zelené tlačítko se znaménkem – mapu oddálíte a kliknutím na zelené šipky přejdete na sousední mapy.


METAR-TAF: